{"data":{"norad_id":65138,"epoch":"2026-05-24T19:44:46.452768Z","epoch_age_seconds":90252,"freshness":"FRESH","line1":"1 65138U 25171G   26144.82275987  .00001814  00000+0  26677-3 0  9998","line2":"2 65138  51.9004 176.4287 0000548  52.6499 307.4513 14.79943822 44236","mean_motion":14.79943822,"eccentricity":5.48e-5,"inclination_deg":51.9004,"raan_deg":176.4287,"arg_perigee_deg":52.6499,"mean_anomaly_deg":307.4513,"bstar":0.00026677,"rev_number":4423,"period_min":97.30099065882,"perigee_km":629.11744842287,"apogee_km":629.88548559886,"semimajor_km":7007.6384670109,"source":"CELESTRAK","updated_at":"2026-05-25T13:38:05.165813Z"}}